Outer Banks, North Carolina, United States
Lat: 35.98N, Lon: 75.65W
Wx Zone: NCZ103
Local Info
Past Weather Observations for Today

NOTE: This archive is for the closest National Weather Service station to Outer Banks. Information may differ from the station used for current weather conditions.

Time Weather Temperature Dewpoint Humidity Pressure Winds Precip Visibility
08:35
Mostly Cloudy
43°F / 6°C 30°F / -1°C 61% 30.3 in
(1026 mb)
N 12.7 mph
(N 20 kph)
- 10SM
08:15
Partly Cloudy
41°F / 5°C 28°F / -2°C 61% 30.27 in
(1025 mb)
N 16.1 mph
(N 26 kph)
- 10SM
07:55
Partly Cloudy
41°F / 5°C 28°F / -2°C 61% 30.27 in
(1025 mb)
N 11.5 mph
(N 19 kph)
- 10SM
07:35
Partly Cloudy
41°F / 5°C 28°F / -2°C 61% 30.24 in
(1024 mb)
N 13.8 mph
(N 22 kph)
- 10SM
07:15
Mostly Cloudy
41°F / 5°C 30°F / -1°C 66% 30.24 in
(1024 mb)
N 12.7 mph
(N 20 kph)
- 10SM
06:55
Mostly Cloudy
41°F / 5°C 28°F / -2°C 61% 30.21 in
(1023 mb)
N 12.7 mph
(N 20 kph)
- 10SM
06:35
Mostly Cloudy
39°F / 4°C 30°F / -1°C 70% 30.21 in
(1023 mb)
N 17.3 mph
(N 28 kph)
- 10SM
06:15
Mostly Cloudy
39°F / 4°C 30°F / -1°C 70% 30.18 in
(1022 mb)
N 15 mph
(N 24 kph)
- 10SM
05:55
Overcast
41°F / 5°C 30°F / -1°C 66% 30.18 in
(1022 mb)
N 13.8 mph
(N 22 kph)
- 10SM
05:35
Overcast
41°F / 5°C 30°F / -1°C 66% 30.15 in
(1021 mb)
N 19.6 mph
(N 32 kph)
- 10SM
05:15
Overcast
41°F / 5°C 32°F / 0°C 70% 30.15 in
(1021 mb)
NNW 13.8 mph
(NNW 22 kph)
- 10SM
04:55
Overcast
41°F / 5°C 32°F / 0°C 70% 30.12 in
(1020 mb)
N 15 mph
(N 24 kph)
- 10SM
04:35
Overcast
41°F / 5°C 32°F / 0°C 70% 30.12 in
(1020 mb)
N 13.8 mph
(N 22 kph)
- 10SM
04:15
Overcast
41°F / 5°C 34°F / 1°C 76% 30.09 in
(1019 mb)
N 19.6 mph
(N 32 kph)
- 10SM
03:55
Overcast
41°F / 5°C 34°F / 1°C 76% 30.09 in
(1019 mb)
N 10.4 mph
(N 17 kph)
- 10SM
03:35
Overcast
41°F / 5°C 36°F / 2°C 81% 30.06 in
(1018 mb)
N 17.3 mph
(N 28 kph)
- 10SM
03:15
Overcast
41°F / 5°C 37°F / 3°C 87% 30.06 in
(1018 mb)
N 15 mph
(N 24 kph)
- 10SM
02:55
Overcast
41°F / 5°C 37°F / 3°C 87% 30.06 in
(1018 mb)
N 13.8 mph
(N 22 kph)
- 10SM
02:35
Overcast
41°F / 5°C 37°F / 3°C 87% 30.04 in
(1017 mb)
N 13.8 mph
(N 22 kph)
- 10SM
02:15
Overcast
41°F / 5 1000 °C 37°F / 3°C 87% 30.04 in
(1017 mb)
N 16.1 mph
(N 26 kph)
- 10SM
01:55
Overcast
Drizzle
41°F / 5°C 39°F / 4°C 93% 30.01 in
(1016 mb)
N 13.8 mph
(N 22 kph)
0.01 in
(0.25 mm)
10SM
01:35
Mostly Cloudy
41°F / 5°C 39°F / 4°C 93% 29.98 in
(1015 mb)
N 16.1 mph
(N 26 kph)
0.01 in
(0.25 mm)
10SM
01:15
Overcast
Rain
41°F / 5°C 39°F / 4°C 93% 29.98 in
(1015 mb)
NNW 15 mph
(NNW 24 kph)
0.01 in
(0.25 mm)
7SM
00:55
Overcast
Rain
41°F / 5°C 41°F / 5°C 100% 29.98 in
(1015 mb)
NNW 19.6 mph
(NNW 32 kph)
0.07 in
(1.78 mm)
5SM
00:35
Overcast
Rain
43°F / 6°C 41°F / 5°C 93% 29.98 in
(1015 mb)
N 19.6 mph
(N 32 kph)
0.04 in
(1.02 mm)
5SM
00:15
Overcast
Rain
43°F / 6°C 43°F / 6°C 100% 29.95 in
(1014 mb)
NNW 16.1 mph
(NNW 26 kph)
0.02 in
(0.51 mm)
5SM
Time Weather Temperature Dewpoint Humidity Pressure Winds Precip Visibility


Weather for websites

WeatherForYou.com, LLC is not responsible for any damages or problems caused by this service. Current weather conditions are obtained from the closest station including government and personal stations which may have varying degrees of accuracy. Weather forecasts are derived from the NOAA NDFD. Like all things, this site belongs to Jesus Christ... He just trusts me to maintain it. If you have any questions or comments email webmaster@weatherforyou.com

Copyright © 2014, WeatherForYou.com LLC. All rights reserved.